Date String (YYYY-MM-DD hh:mm:ss) UTC,Instrument flags,Ambient pressure (hPa),Sample flow (lpm),Bypass flow (lpm),Sample temperature (°C),Ambient temperature (°C),ASC tube jacket temperature (°C),LED temperature (°C),Box temperature (°C),Sample RH (%),Span deviation,Mass concentration (μg/m³),Mass concentration (μg/m³),Mass concentration (μg/m³)
DateTimeUTC,F1_M11,P_M11,Q1_M11,Q2_M11,T1_M11,T2_M11,T3_M11,T4_M11,T5_M11,U1_M11,ZSPAN_M11,X0_M11,X2_M11,X1_M11
2023-05-26 03:00:00,,0829.0,5.00,0.00,29.4,27.7,00.0,37.8,30.9,23.5,0000.0,0006.14,0003.28,0002.53
2023-05-26 03:01:00,,0829.0,5.00,0.00,29.3,27.7,00.0,37.8,30.9,23.6,0000.0,0006.14,0003.28,0002.57
2023-05-26 03:02:00,,0829.1,5.00,0.00,29.3,27.6,00.0,37.8,30.9,23.7,0000.0,0006.19,0003.30,0002.58
2023-05-26 03:03:00,,0829.1,4.99,0.00,29.3,27.6,00.0,37.8,30.9,23.9,0000.0,0006.31,0003.34,0002.61
2023-05-26 03:04:00,,0829.1,5.00,0.00,29.3,27.5,00.0,37.8,30.8,24.1,0000.0,0006.79,0003.33,0002.65
2023-05-26 03:05:00,,0829.1,5.01,0.00,29.3,27.5,00.0,37.8,30.8,24.2,0000.0,0007.69,0003.36,0002.70
2023-05-26 03:06:00,,0829.1,5.00,0.00,29.3,27.4,00.0,37.7,30.8,24.4,0000.0,0007.75,0003.42,0002.75
2023-05-26 03:07:00,,0829.1,5.00,0.00,29.2,27.4,00.0,37.7,30.7,24.4,0000.0,0007.98,0003.50,0002.78
2023-05-26 03:08:00,,0829.1,5.01,0.00,29.2,27.3,00.0,37.7,30.7,24.4,0000.0,0008.05,0003.51,0002.80
2023-05-26 03:09:00,,0829.1,5.00,0.00,29.2,27.2,00.0,37.7,30.7,24.6,0000.0,0008.92,0003.51,0002.83
2023-05-26 03:10:00,,0829.1,5.00,0.00,29.2,27.3,00.0,37.7,30.7,24.4,0000.0,0008.85,0003.50,0002.83
2023-05-26 03:11:00,,0829.2,5.00,0.00,29.2,27.3,00.0,37.7,30.7,24.2,0000.0,0008.86,0003.52,0002.85
2023-05-26 03:12:00,,0829.2,5.00,0.00,29.1,27.3,00.0,37.7,30.7,24.0,0000.0,0008.78,0003.51,0002.85
2023-05-26 03:13:00,,0829.3,5.00,0.00,29.1,27.3,00.0,37.6,30.7,24.2,0000.0,0008.69,0003.47,0002.85
2023-05-26 03:14:00,,0829.3,5.00,0.00,29.1,27.3,00.0,37.6,30.7,24.1,0000.0,0008.88,0003.46,0002.82
2023-05-26 03:15:00,,0829.4,5.00,0.00,29.1,27.3,00.0,37.6,30.7,24.2,0000.0,0008.64,0003.47,0002.79
2023-05-26 03:16:00,,0829.4,5.00,0.00,29.1,27.3,00.0,37.6,30.7,24.3,0000.0,0007.97,0003.45,0002.76
2023-05-26 03:17:00,,0829.3,5.00,0.00,29.1,27.4,00.0,37.6,30.7,24.4,0000.0,0007.93,0003.41,0002.72
2023-05-26 03:18:00,,0829.3,5.00,0.00,29.1,27.4,00.0,37.6,30.6,24.4,0000.0,0007.99,0003.38,0002.69
2023-05-26 03:19:00,,0829.3,5.00,0.00,29.1,27.4,00.0,37.6,30.6,24.5,0000.0,0007.79,0003.34,0002.69
2023-05-26 03:20:00,,0829.3,5.00,0.00,29.1,27.4,00.0,37.6,30.6,24.4,0000.0,0006.54,0003.32,0002.66
2023-05-26 03:21:00,,0829.3,5.00,0.00,29.1,27.4,00.0,37.6,30.6,24.6,0000.0,0006.57,0003.33,0002.63
2023-05-26 03:22:00,,0829.4,5.00,0.00,29.1,27.4,00.0,37.6,30.6,24.7,0000.0,0006.63,0003.33,0002.62
2023-05-26 03:23:00,,0829.4,5.00,0.00,29.1,27.4,00.0,37.6,30.6,24.9,0000.0,0006.72,0003.34,0002.61
2023-05-26 03:24:00,,0829.5,5.00,0.00,29.1,27.4,00.0,37.5,30.7,25.0,0000.0,0006.76,0003.36,0002.61
2023-05-26 03:25:00,,0829.5,5.01,0.00,29.1,27.4,00.0,37.5,30.7,25.2,0000.0,0006.35,0003.35,0002.63
2023-05-26 03:26:00,,0829.6,5.01,0.00,29.1,27.4,00.0,37.5,30.7,25.3,0000.0,0006.22,0003.35,0002.65
2023-05-26 03:27:00,,0829.6,5.01,0.00,29.1,27.4,00.0,37.5,30.7,25.3,0000.0,0006.34,0003.37,0002.66
2023-05-26 03:28:00,,0829.6,5.00,0.00,29.1,27.4,00.0,37.5,30.7,25.3,0000.0,0006.24,0003.41,0002.70
2023-05-26 03:29:00,,0829.6,4.99,0.00,29.1,27.4,00.0,37.5,30.7,25.3,0000.0,0005.85,0003.40,0002.71
2023-05-26 03:30:00,,0829.7,5.00,0.00,29.1,27.4,00.0,37.5,30.7,25.3,0000.0,0005.93,0003.43,0002.73
2023-05-26 03:31:00,,0829.6,4.99,0.00,29.1,27.4,00.0,37.5,30.7,25.2,0000.0,0006.08,0003.48,0002.76
2023-05-26 03:32:00,,0829.6,5.01,0.00,29.1,27.4,00.0,37.5,30.7,25.3,0000.0,0006.18,0003.52,0002.78
2023-05-26 03:33:00,,0829.6,5.01,0.00,29.1,27.5,00.0,37.5,30.7,25.3,0000.0,0006.18,0003.53,0002.80
2023-05-26 03:34:00,,0829.6,5.00,0.00,29.1,27.5,00.0,37.5,30.7,25.2,0000.0,0006.24,0003.55,0002.81
2023-05-26 03:35:00,,0829.6,5.01,0.00,29.1,27.5,00.0,37.5,30.7,25.0,0000.0,0006.77,0003.59,0002.83
2023-05-26 03:36:00,,0829.7,4.99,0.00,29.1,27.5,00.0,37.5,30.7,24.9,0000.0,0007.79,0003.62,0002.85
2023-05-26 03:37:00,,0829.7,4.99,0.00,29.1,27.5,00.0,37.5,30.7,24.9,0000.0,0007.89,0003.65,0002.86
2023-05-26 03:38:00,,0829.7,5.01,0.00,29.1,27.5,00.0,37.5,30.7,24.9,0000.0,0007.87,0003.63,0002.89
2023-05-26 03:39:00,,0829.7,5.01,0.00,29.1,27.5,00.0,37.5,30.7,24.9,0000.0,0007.84,0003.63,0002.90
2023-05-26 03:40:00,,0829.7,5.01,0.00,29.1,27.5,00.0,37.5,30.7,25.0,0000.0,0007.89,0003.65,0002.90
2023-05-26 03:41:00,,0829.7,5.01,0.00,29.1,27.4,00.0,37.5,30.7,25.1,0000.0,0007.98,0003.67,0002.93
2023-05-26 03:42:00,,0829.7,4.99,0.00,29.1,27.4,00.0,37.5,30.7,25.1,0000.0,0008.14,0003.72,0002.97
2023-05-26 03:43:00,,0829.7,4.99,0.00,29.1,27.4,00.0,37.5,30.7,25.2,0000.0,0008.17,0003.76,0003.01
2023-05-26 03:44:00,,0829.7,5.01,0.00,29.1,27.4,00.0,37.5,30.6,25.1,0000.0,0008.23,0003.80,0003.05
2023-05-26 03:45:00,,0829.7,5.02,0.00,29.1,27.4,00.0,37.5,30.6,25.1,0000.0,0008.30,0003.82,0003.09
2023-05-26 03:46:00,,0829.7,5.00,0.00,29.1,27.4,00.0,37.5,30.6,25.1,0000.0,0008.35,0003.79,0003.10
2023-05-26 03:47:00,,0829.7,4.99,0.00,29.0,27.3,00.0,37.5,30.6,25.1,0000.0,0007.87,0003.80,0003.12
2023-05-26 03:48:00,,0829.7,4.99,0.00,29.0,27.3,00.0,37.5,30.6,25.2,0000.0,0007.88,0003.79,0003.13
2023-05-26 03:49:00,,0829.6,5.00,0.00,29.0,27.3,00.0,37.5,30.6,25.2,0000.0,0008.20,0003.85,0003.14
2023-05-26 03:50:00,,0829.7,5.00,0.00,29.0,27.3,00.0,37.5,30.6,25.1,0000.0,0008.60,0003.93,0003.15
2023-05-26 03:51:00,,0829.6,5.00,0.00,29.0,27.3,00.0,37.5,30.6,25.0,0000.0,0008.79,0003.95,0003.17
2023-05-26 03:52:00,,0829.7,5.00,0.00,29.0,27.3,00.0,37.5,30.6,24.9,0000.0,0008.99,0003.98,0003.18
2023-05-26 03:53:00,,0829.7,5.00,0.00,29.0,27.3,00.0,37.5,30.6,25.1,0000.0,0008.97,0003.96,0003.18
2023-05-26 03:54:00,,0829.7,5.00,0.00,29.0,27.3,00.0,37.5,30.6,25.4,0000.0,0008.86,0003.90,0003.17
2023-05-26 03:55:00,,0829.7,5.00,0.00,29.0,27.4,00.0,37.5,30.6,25.2,0000.0,0008.90,0003.89,0003.17
2023-05-26 03:56:00,,0829.7,5.00,0.00,29.0,27.4,00.0,37.5,30.6,25.0,0000.5,0008.90,0003.87,0003.15
2023-05-26 03:57:00,,0829.7,5.00,0.00,29.0,27.4,00.0,37.5,30.6,24.7,0000.1,0009.00,0003.87,0003.13
2023-05-26 03:58:00,,0829.7,5.00,0.00,29.0,27.4,00.0,37.5,30.6,24.7,0000.4,0009.25,0003.87,0003.12
2023-05-26 03:59:00,,0829.7,5.00,0.00,29.0,27.4,00.0,37.4,30.6,24.7,0000.0,0009.52,0003.86,0003.12
